星链-3129 (STARLINK-3129 )

导读 | 星芒AI

STARLINK-3129 是 SpaceX Starlink 项目中的一颗低轨通信卫星,属于第 11 批(v1.5)发射的 53 颗卫星之一,于 2022 年 9 月 30 日由猎鹰 9 号火箭送入近地轨道。该卫星旨在为全球提供高速互联网服务,支持农村和偏远地区网络接入。其设计具备先进通信能力,可与其他 Starlink 卫星协同工作,提升网络覆盖与连接稳定性。作为 Starlink 卫星群的一部分,STARLINK-3129 运行在约 550 公里高度的轨道上,助力构建全球宽带通信网络。

基本信息
目录编号:
49453
目录名称:
STARLINK-3129
国际标识:
2021-104AX
轨道中心:
EARTH
卫星名称:
星链-3129
卫星全名:
星链-3129 (STARLINK-3129 )
卫星状态:
在轨 (已飞行1451 天)
发射日期:
2021-11-13 UTC
国别 :
美国 (US)
星等 :
--
轨道信息
数据来源 国际轨道数据
星历时间: 2025-11-02T19:59:39+0800
14小时前
查看轨道信息
半长轴: 6917.9km
偏心率: 0.000142
轨道倾角: 53.218°
近地点辐角 98.943°
升交点赤经 70.184°
平近点角 261.172°
近地点: 538.782km
远地点: 540.748km
周期: 95.438分钟
每日圈数: 15.088338
详细信息
固有亮度:
5
最大亮度:
2.5
卫星平台:
Starlink v1.5
覆盖范围:
全球
运营商:
太空探索技术公司
运营商所在国:
美国
制造商(研发单位):
太空探索技术公司
制造商所在国:
美国
使用方式:
暂无
卫星简介
星链(Starlink)计划是由太空探索技术公司(SpaceX)提出的一个巨型低轨卫星互联网星座项目,计划在2019年至2024年间在太空搭建由约1.2万颗卫星组成的“星链”网络,其中1584颗将部署在地球上空550千米处的近地轨道,并从2020年开始工作。该卫星仍在工作。
2D轨道图
3D轨道图
轨道高度分析图
轨道倾角分析图
轨道综合分析图
查看轨道综合分析图